This is the latest recevied weather packets stored in our database for station/object MEGLR. If no packets are shown the sender has not sent any weather packets the latest 10 day(s).
| Time | Temp. | Humidity | Pressure | Rain* | Wind** | Luminosity | Snow |
|---|---|---|---|---|---|---|---|
| 1788140403 | 17.22° C | 75% | 0 hPa | - | - | - | - |
| 1788139803 | 17.22° C | 72% | 0 hPa | - | - | - | - |
| 1788139203 | 17.78° C | 72% | 0 hPa | - | - | - | - |
| 1788138603 | 16.67° C | 76% | 0 hPa | - | - | - | - |
| 1788138004 | 16.67° C | 76% | 0 hPa | - | - | - | - |
| 1788137402 | 16.67° C | 78% | 0 hPa | - | - | - | - |
| 1788136802 | 16.67° C | 77% | 0 hPa | - | - | - | - |
| 1788136203 | 16.67° C | 77% | 0 hPa | - | - | - | - |
| 1788135603 | 16.67° C | 78% | 0 hPa | - | - | - | - |
| 1788135005 | 16.67° C | 79% | 0 hPa | - | - | - | - |
| 1788134403 | 16.11° C | 77% | 0 hPa | - | - | - | - |
| 1788133803 | 16.11° C | 80% | 0 hPa | - | - | - | - |
| 1788133203 | 16.11° C | 80% | 0 hPa | - | - | - | - |
| 1788132603 | 16.11° C | 79% | 0 hPa | - | - | - | - |
| 1788132003 | 16.11° C | 79% | 0 hPa | - | - | - | - |
| 1788131403 | 16.11° C | 76% | 0 hPa | - | - | - | - |
| 1788130803 | 16.11° C | 80% | 0 hPa | - | - | - | - |
| 1788130203 | 16.11° C | 78% | 0 hPa | - | - | - | - |
| 1788129603 | 16.11° C | 81% | 0 hPa | - | - | - | - |
| 1788129004 | 15.56° C | 81% | 0 hPa | - | - | - | - |
| 1788128402 | 16.11° C | 80% | 0 hPa | - | - | - | - |
| 1788127803 | 16.11° C | 79% | 0 hPa | - | - | - | - |
| 1788127203 | 16.11° C | 80% | 0 hPa | - | - | - | - |
| 1788126604 | 16.11° C | 77% | 0 hPa | - | - | - | - |
| 1788126004 | 16.11° C | 76% | 0 hPa | - | - | - | - |
* Rain since midnight (hover to see other rain measurements)
** Current wind speed in m/s (hover to see current wind gust speed)